Weather History for KAQO - January, 2013

Change the Weather History Date:

Friday, January 18, 2013

  Actual Average (KBMQ) Record (KBMQ)
Temperature  
Mean Temperature 46 °F -  
Max Temperature 66 °F 58 °F 82 °F (2000)
Min Temperature 26 °F 37 °F 21 °F (2003)
Degree Days  
Heating Degree Days 19    
Moisture  
Dew Point 30 °F    
Average Humidity 63    
Maximum Humidity 93    
Minimum Humidity 26    
Precipitation  
Precipitation 0.00 in - - ()
Sea Level Pressure  
Sea Level Pressure 30.44 in    
Wind  
Wind Speed 2 mph (South)    
Max Wind Speed 10 mph    
Max Gust Speed 18 mph    
Visibility 10 miles    
Events      
Averages and records for this station are not official NWS values.
T = Trace of Precipitation, MM = Missing Value Source: NWS Daily Summary

Daily Weather History Graph

Daily Weather History Graph

Search for Another Location

Airport or City:

Trip Planner

Search our weather history database for the weather conditions in past years. The results will help you decide how hot, cold, wet, or windy it might be!

Date:

Astronomy

Jan. 18, 2013 Rise Set
Actual Time 7:32 AM CST 5:58 PM CST
Civil Twilight 7:06 AM CST 6:24 PM CST
Nautical Twilight 6:36 AM CST 6:53 PM CST
Astronomical Twilight 6:07 AM CST 7:22 PM CST
Moon 11:45 AM CST (1/18) 12:18 AM CST (1/18)
Length of Visible Light 11h 18m
Length of Day
10h 26m
Waxing Crescent, 47% of the Moon is Illuminated
Jan 18
Waxing Crescent
Jan 18
First Quarter
Jan 26
Full
Feb 3
Last Quarter
Feb 10
New

Hourly Weather History & Observations

Time (CST) Temp. Windchill Dew Point Humidity Pressure Visibility Wind Dir Wind Speed Gust Speed Precip Events Conditions
12:15 AM 33.8 °F - 30.2 °F 87% 30.52 in 10.0 mi Calm Calm - N/A   Clear
12:35 AM 33.8 °F - 28.4 °F 81% 30.52 in 10.0 mi Calm Calm - N/A   Clear
12:55 AM 33.8 °F - 28.4 °F 81% 30.52 in 10.0 mi Calm Calm - N/A   Clear
1:15 AM 32.0 °F - 28.4 °F 87% 30.52 in 10.0 mi Calm Calm - N/A   Clear
1:35 AM 32.0 °F - 28.4 °F 87% 30.53 in 10.0 mi Calm Calm - N/A   Clear
1:55 AM 32.0 °F - 28.4 °F 87% 30.53 in 10.0 mi Calm Calm - N/A   Clear
2:15 AM 32.0 °F - 28.4 °F 87% 30.53 in 10.0 mi Calm Calm - N/A   Clear
2:35 AM 32.0 °F - 28.4 °F 87% 30.53 in 10.0 mi Calm Calm - N/A   Clear
2:55 AM 30.2 °F - 26.6 °F 86% 30.53 in 10.0 mi Calm Calm - N/A   Clear
3:15 AM 30.2 °F 26.7 °F 28.4 °F 93% 30.53 in 10.0 mi North 3.5 mph - N/A   Clear
3:35 AM 30.2 °F 26.7 °F 28.4 °F 93% 30.53 in 10.0 mi North 3.5 mph - N/A   Clear
3:55 AM 30.2 °F - 26.6 °F 86% 30.53 in 10.0 mi Calm Calm - N/A   Clear
4:15 AM 30.2 °F - 26.6 °F 86% 30.53 in 10.0 mi Calm Calm - N/A   Clear
4:35 AM 30.2 °F - 26.6 °F 86% 30.52 in 10.0 mi Calm Calm - N/A   Clear
4:55 AM 30.2 °F - 26.6 °F 86% 30.52 in 10.0 mi Calm Calm - N/A   Clear
5:15 AM 30.2 °F - 28.4 °F 93% 30.52 in 10.0 mi Calm Calm - N/A   Clear
5:35 AM 28.4 °F - 26.6 °F 93% 30.52 in 10.0 mi Calm Calm - N/A   Clear
5:55 AM 28.4 °F - 26.6 °F 93% 30.52 in 10.0 mi Calm Calm - N/A   Clear
6:15 AM 28.4 °F - 26.6 °F 93% 30.53 in 10.0 mi Calm Calm - N/A   Clear
6:55 AM 28.4 °F - 24.8 °F 86% 30.53 in 10.0 mi Calm Calm - N/A   Clear
7:15 AM 26.6 °F 22.6 °F 24.8 °F 93% 30.53 in 10.0 mi North 3.5 mph - N/A   Clear
7:35 AM 28.4 °F 23.3 °F 24.8 °F 86% 30.53 in 10.0 mi North 4.6 mph - N/A   Clear
7:55 AM 28.4 °F - 26.6 °F 93% 30.53 in 10.0 mi Calm Calm - N/A   Clear
8:15 AM 32.0 °F 28.7 °F 30.2 °F 93% 30.53 in 10.0 mi WSW 3.5 mph - N/A   Clear
8:35 AM 32.0 °F - 30.2 °F 93% 30.53 in 10.0 mi Calm Calm - N/A   Clear
8:55 AM 35.6 °F - 32.0 °F 87% 30.53 in 10.0 mi Calm Calm - N/A   Clear
9:15 AM 37.4 °F - 32.0 °F 81% 30.54 in 10.0 mi Calm Calm - N/A   Clear
9:55 AM 44.6 °F - 32.0 °F 61% 30.54 in 10.0 mi Calm Calm - N/A   Clear
10:15 AM 48.2 °F - 33.8 °F 58% 30.54 in 10.0 mi Calm Calm - N/A   Clear
10:35 AM 51.8 °F - 32.0 °F 47% 30.54 in 10.0 mi SE 4.6 mph - N/A   Clear
10:55 AM 53.6 °F - 32.0 °F 44% 30.53 in 10.0 mi SSE 4.6 mph - N/A   Clear
11:15 AM 53.6 °F - 33.8 °F 47% 30.52 in 8.0 mi SE 6.9 mph - N/A   Clear
11:35 AM 57.2 °F - 33.8 °F 41% 30.49 in 10.0 mi SSE 4.6 mph - N/A   Clear
11:55 AM 59.0 °F - 32.0 °F 36% 30.47 in 10.0 mi South 10.4 mph - N/A   Clear
12:15 PM 60.8 °F - 32.0 °F 34% 30.45 in 10.0 mi South 9.2 mph - N/A   Clear
12:35 PM 60.8 °F - 30.2 °F 31% 30.44 in 10.0 mi South 6.9 mph - N/A   Clear
12:55 PM 62.6 °F - 30.2 °F 30% 30.42 in 10.0 mi SSE 8.1 mph - N/A   Clear
1:15 PM 62.6 °F - 32.0 °F 32% 30.40 in 10.0 mi South 8.1 mph - N/A   Clear
1:35 PM 62.6 °F - 32.0 °F 32% 30.39 in 10.0 mi South 6.9 mph 18.4 mph N/A   Clear
1:55 PM 64.4 °F - 32.0 °F 30% 30.37 in 10.0 mi South 5.8 mph - N/A   Clear
2:15 PM 64.4 °F - 32.0 °F 30% 30.36 in 10.0 mi SSW 4.6 mph - N/A   Clear
2:35 PM 64.4 °F - 32.0 °F 30% 30.35 in 9.0 mi SW 8.1 mph - N/A   Clear
2:55 PM 66.2 °F - 32.0 °F 28% 30.35 in 10.0 mi Calm Calm - N/A   Clear
3:15 PM 66.2 °F - 32.0 °F 28% 30.34 in 10.0 mi SSW 4.6 mph - N/A   Clear
3:35 PM 66.2 °F - 32.0 °F 28% 30.34 in 10.0 mi South 6.9 mph - N/A   Clear
3:55 PM 66.2 °F - 32.0 °F 28% 30.34 in 10.0 mi SSW 8.1 mph - N/A   Clear
4:15 PM 66.2 °F - 30.2 °F 26% 30.33 in 10.0 mi SSW 6.9 mph - N/A   Clear
4:35 PM 66.2 °F - 30.2 °F 26% 30.33 in 10.0 mi SSW 5.8 mph - N/A   Clear
4:55 PM 64.4 °F - 32.0 °F 30% 30.33 in 10.0 mi South 4.6 mph - N/A   Clear
5:15 PM 64.4 °F - 30.2 °F 28% 30.33 in 10.0 mi SSW 5.8 mph - N/A   Clear
5:35 PM 62.6 °F - 30.2 °F 30% 30.34 in 10.0 mi South 4.6 mph - N/A   Clear
5:55 PM 60.8 °F - 32.0 °F 34% 30.34 in 10.0 mi SSE 4.6 mph - N/A   Clear
6:15 PM 55.4 °F - 32.0 °F 41% 30.34 in 10.0 mi SE 5.8 mph - N/A   Clear
6:35 PM 53.6 °F - 32.0 °F 44% 30.34 in 10.0 mi ESE 4.6 mph - N/A   Clear
6:55 PM 53.6 °F - 32.0 °F 44% 30.35 in 10.0 mi Calm Calm - N/A   Clear
7:15 PM 48.2 °F - 32.0 °F 54% 30.35 in 10.0 mi Calm Calm - N/A   Clear
7:35 PM 50.0 °F - 32.0 °F 50% 30.35 in 10.0 mi Calm Calm - N/A   Clear
7:55 PM 50.0 °F - 32.0 °F 50% 30.35 in 10.0 mi Calm Calm - N/A   Clear
8:15 PM 48.2 °F - 32.0 °F 54% 30.35 in 10.0 mi Calm Calm - N/A   Clear
8:35 PM 46.4 °F - 32.0 °F 57% 30.35 in 10.0 mi Calm Calm - N/A   Clear
8:55 PM 44.6 °F - 32.0 °F 61% 30.35 in 10.0 mi Calm Calm - N/A   Clear
9:15 PM 41.0 °F - 32.0 °F 70% 30.36 in 10.0 mi Calm Calm - N/A   Clear
9:35 PM 41.0 °F - 32.0 °F 70% 30.36 in 10.0 mi Calm Calm - N/A   Clear
9:55 PM 39.2 °F - 32.0 °F 75% 30.35 in 10.0 mi Calm Calm - N/A   Clear
10:15 PM 39.2 °F - 32.0 °F 75% 30.35 in 10.0 mi Calm Calm - N/A   Clear
10:35 PM 37.4 °F - 32.0 °F 81% 30.35 in 10.0 mi Calm Calm - N/A   Clear
10:55 PM 39.2 °F - 32.0 °F 75% 30.34 in 10.0 mi Calm Calm - N/A   Clear
11:15 PM 37.4 °F - 32.0 °F 81% 30.33 in 10.0 mi Calm Calm - N/A   Clear
11:35 PM 37.4 °F - 32.0 °F 81% 30.33 in 10.0 mi Calm Calm - N/A   Clear
11:55 PM 37.4 °F - 32.0 °F 81% 30.33 in 10.0 mi Calm Calm - N/A   Clear